Weather Roundup
Issued by NWS Springfield, MO

Home | Current Version | Previous Version | Text Only | Print | Product List | Glossary On
Versions: 1 2 3 4 5 6 7 8 9 10 11 12 13 14 15 16 17 18 19 20 21 22 23 24 25 26 27 28 29 30 31 32 33 34 35 36 37 38 39 40 41 42 43 44 45 46 47 48 49 50
000
NZUS99 KSGF 282307
HRRSGF

HOURLY WEATHER
NATIONAL WEATHER SERVICE SPRINGFIELD MO
500 PM CST FRI NOV 28 2014

......SGF CWA......

CITY           SKY/WX    TMP DP  RH WIND       PRES   REMARKS
SPRINGFIELD    CLEAR     57  34  41 S16       29.89F
JOPLIN         CLEAR     60  36  40 S16       29.87F
WEST PLAINS    CLEAR     50  32  50 S13G22    29.99F
ROLLA          PTCLDY    50  33  52 S12       29.89F
OSAGE BEACH    MOCLDY    57  34  41 S8        29.87S
BRANSON        PTCLDY    57  34  41 S9        29.96F

......SURROUNDING SGF CWA......

CITY           SKY/WX    TMP DP  RH WIND       PRES   REMARKS
CHANUTE        PTCLDY    57  36  45 S14       29.85R
PARSONS        CLEAR     60  37  42 S12       29.86S
COFFEYVILLE    CLEAR     60  37  42 S15       29.86S
EMPORIA        PTCLDY    56  35  45 S8        29.80F
GROVE OK       CLEAR     61  37  41 S15G25    29.91S
ROGERS AR      CLEAR     57  37  47 S15G24    29.93F
SILOAM SPRINGS CLEAR     57  36  44 S16G23    29.95S
HARRISON AR    CLEAR     53  35  50 S14       29.97F
NEAR YELLVILLE CLEAR     55  34  44 S6        29.99F

......KANSAS AND MISSOURI......

CITY           SKY/WX    TMP DP  RH WIND       PRES   REMARKS
KANSAS CTY INT MOCLDY    50  34  54 S10       29.79S
DOWNTOWN KC    PTCLDY    56  33  42 S8        29.80S
COLUMBIA       MOCLDY    53  34  48 S10       29.85F
SEDALIA        PTCLDY    54  34  46 S8        29.84F
ST JOSEPH      PTCLDY    50  33  52 SE6       29.76F
ST LOUIS       MOCLDY    50  33  52 SE10      29.93F
SPIRIT OF STL  MOCLDY    50  32  50 S7        29.91F
KIRKSVILLE     PTCLDY    41  33  73 SE7       29.82F
WICHITA        MOCLDY    59  36  42 S14       29.81S
TOPEKA         CLEAR     61  34  36 S10       29.77F
OLATHE         PTCLDY    55  34  45 SW8       29.81S

......TENNESSEE......

CITY           SKY/WX    TMP DP  RH WIND       PRES   REMARKS
MEMPHIS        PTCLDY    52  22  30 S12       30.16F
NASHVILLE      PTCLDY    42  22  44 S7        30.22S

......ARKANSAS.......

CITY           SKY/WX    TMP DP  RH WIND       PRES   REMARKS
FAYETTEVILLE   CLEAR     57  37  47 S18G28    29.94F
FT SMITH       CLEAR     62  37  39 S8        29.99F
LITTLE ROCK    PTCLDY    55  34  45 S8        30.11S

......OKLAHOMA.......

CITY           SKY/WX    TMP DP  RH WIND       PRES   REMARKS
TULSA          MOCLDY    64  41  42 S14       29.89S
PONCA CITY     PTCLDY    63  37  38 S10G17    29.84F
MCALESTER      PTCLDY    65  45  48 S10G22    29.97R
OKLAHOMA CITY  MOCLDY    65  41  41 S15       29.89S

......IOWA............

CITY           SKY/WX    TMP DP  RH WIND       PRES   REMARKS
DES MOINES     PTCLDY    42  30  62 SE8       29.77F
QUAD CITIES    MOCLDY    33  28  81 E8        29.89F WCI  26

......ILLINOIS........

CITY           SKY/WX    TMP DP  RH WIND       PRES   REMARKS
QUINCY         PTCLDY    39  33  79 SE7       29.85F WCI  34
CHICAGO        CLOUDY    31  25  78 S13       29.97F WCI  21




USA.gov is the U.S. government's official web portal to all federal, state and local government web resources and services.